Date String (YYYY-MM-DD hh:mm:ss) UTC,Instrument flags,Ambient pressure (hPa),Sample flow (lpm),Bypass flow (lpm),Sample temperature (°C),Ambient temperature (°C),ASC tube jacket temperature (°C),LED temperature (°C),Box temperature (°C),Sample RH (%),Span deviation,Mass concentration (μg/m³),Mass concentration (μg/m³),Mass concentration (μg/m³)
DateTimeUTC,F1_M11,P_M11,Q1_M11,Q2_M11,T1_M11,T2_M11,T3_M11,T4_M11,T5_M11,U1_M11,ZSPAN_M11,X2_M11,X0_M11,X1_M11
2023-05-02 17:00:00,,0830.1,5.00,0.00,27.5,26.0,00.0,35.9,29.1,15.9,0006.1,0009.00,0021.75,0007.19
2023-05-02 17:01:00,,0830.1,5.00,0.00,27.5,26.0,00.0,35.9,29.1,15.9,0006.0,0009.09,0021.23,0007.21
2023-05-02 17:02:00,,0830.1,5.01,0.00,27.5,26.1,00.0,35.9,29.1,15.9,0005.7,0009.14,0021.28,0007.21
2023-05-02 17:03:00,,0830.0,5.00,0.00,27.5,26.1,00.0,35.9,29.1,15.9,0005.4,0009.17,0021.06,0007.21
2023-05-02 17:04:00,,0830.0,4.99,0.00,27.5,26.1,00.0,35.9,29.1,16.0,0005.0,0009.18,0021.11,0007.19
2023-05-02 17:05:00,,0830.0,4.99,0.00,27.5,26.1,00.0,35.9,29.1,16.3,0005.0,0009.13,0022.36,0007.18
2023-05-02 17:06:00,,0830.1,5.00,0.00,27.5,26.1,00.0,35.9,29.2,16.3,0004.9,0009.14,0022.69,0007.19
2023-05-02 17:07:00,,0830.1,5.01,0.00,27.5,26.2,00.0,35.9,29.2,16.0,0004.7,0009.15,0022.01,0007.19
2023-05-02 17:08:00,,0830.1,5.00,0.00,27.6,26.2,00.0,35.9,29.2,16.1,0004.8,0009.12,0022.53,0007.19
2023-05-02 17:09:00,,0830.1,5.00,0.00,27.6,26.2,00.0,35.9,29.2,16.0,0004.9,0009.05,0022.79,0007.19
2023-05-02 17:10:00,,0830.0,5.00,0.00,27.6,26.2,00.0,35.9,29.1,16.2,0004.5,0009.01,0023.39,0007.19
2023-05-02 17:11:00,,0830.0,4.99,0.00,27.6,26.2,00.0,35.9,29.2,16.1,0003.9,0009.04,0023.96,0007.20
2023-05-02 17:12:00,,0830.0,4.99,0.00,27.5,26.2,00.0,35.9,29.2,16.1,0003.9,0009.05,0024.61,0007.22
2023-05-02 17:13:00,,0830.0,5.00,0.00,27.6,26.2,00.0,35.9,29.2,16.3,0003.6,0009.03,0024.70,0007.23
2023-05-02 17:14:00,,0830.0,5.01,0.00,27.6,26.2,00.0,35.9,29.2,16.0,0003.5,0009.00,0024.57,0007.26
2023-05-02 17:15:00,,0830.0,5.01,0.00,27.6,26.3,00.0,35.9,29.2,16.2,0003.8,0009.01,0024.71,0007.32
2023-05-02 17:16:00,,0830.0,4.99,0.00,27.6,26.3,00.0,35.9,29.3,16.0,0004.0,0009.01,0023.02,0007.35
2023-05-02 17:17:00,,0830.1,4.99,0.00,27.6,26.4,00.0,36.0,29.3,16.2,0003.9,0009.01,0023.45,0007.37
2023-05-02 17:18:00,,0830.0,4.99,0.00,27.7,26.4,00.0,36.0,29.3,16.2,0004.1,0009.01,0023.29,0007.40
2023-05-02 17:19:00,,0830.0,5.01,0.00,27.7,26.4,00.0,36.0,29.3,16.1,0003.9,0009.03,0022.40,0007.43
2023-05-02 17:20:00,,0830.0,5.01,0.00,27.7,26.5,00.0,36.0,29.3,16.0,0003.7,0009.07,0021.96,0007.48
2023-05-02 17:21:00,,0830.0,5.01,0.00,27.8,26.5,00.0,36.0,29.3,15.8,0003.4,0009.09,0021.01,0007.53
2023-05-02 17:22:00,,0830.0,4.99,0.00,27.8,26.5,00.0,36.0,29.4,15.9,0003.1,0009.22,0021.35,0007.61
2023-05-02 17:23:00,,0830.0,5.00,0.00,27.8,26.5,00.0,36.0,29.4,15.8,0003.1,0009.27,0021.81,0007.65
2023-05-02 17:24:00,,0830.0,4.99,0.00,27.8,26.6,00.0,36.1,29.4,15.7,0003.8,0009.28,0022.20,0007.70
2023-05-02 17:25:00,,0830.1,5.01,0.00,27.8,26.6,00.0,36.1,29.4,15.9,0004.0,0009.29,0022.01,0007.74
2023-05-02 17:26:00,,0830.1,5.01,0.00,27.8,26.6,00.0,36.1,29.4,15.7,0003.9,0009.30,0021.61,0007.77
2023-05-02 17:27:00,,0830.1,5.00,0.00,27.8,26.5,00.0,36.1,29.4,15.7,0003.9,0009.40,0022.69,0007.81
2023-05-02 17:28:00,,0830.0,4.99,0.00,27.8,26.5,00.0,36.1,29.4,15.7,0004.1,0009.45,0022.33,0007.86
2023-05-02 17:29:00,,0830.1,4.99,0.00,27.8,26.4,00.0,36.1,29.4,15.8,0004.1,0009.50,0022.18,0007.90
2023-05-02 17:30:00,,0830.0,5.00,0.00,27.8,26.4,00.0,36.1,29.4,15.8,0004.1,0009.54,0022.37,0007.94
2023-05-02 17:31:00,,0830.1,5.00,0.00,27.8,26.3,00.0,36.1,29.3,15.9,0004.0,0009.57,0023.38,0007.97
2023-05-02 17:32:00,,0830.0,5.01,0.00,27.8,26.3,00.0,36.1,29.3,16.1,0004.1,0009.65,0023.74,0008.00
2023-05-02 17:33:00,,0830.0,5.01,0.00,27.8,26.3,00.0,36.1,29.4,16.1,0004.3,0009.64,0024.18,0008.00
2023-05-02 17:34:00,,0830.0,5.00,0.00,27.8,26.3,00.0,36.1,29.4,16.1,0004.1,0009.63,0023.69,0008.03
2023-05-02 17:35:00,,0830.1,5.00,0.00,27.8,26.4,00.0,36.1,29.4,16.4,0004.0,0009.64,0022.64,0008.05
2023-05-02 17:36:00,,0830.1,5.00,0.00,27.8,26.4,00.0,36.1,29.4,16.3,0004.2,0009.69,0023.08,0008.08
2023-05-02 17:37:00,,0830.0,4.99,0.00,27.8,26.5,00.0,36.1,29.4,16.5,0004.5,0009.74,0023.69,0008.10
2023-05-02 17:38:00,,0830.0,5.00,0.00,27.8,26.5,00.0,36.1,29.4,16.1,0004.5,0009.79,0023.32,0008.13
2023-05-02 17:39:00,,0830.0,4.99,0.00,27.8,26.5,00.0,36.2,29.5,16.2,0004.3,0009.87,0022.94,0008.16
2023-05-02 17:40:00,,0830.0,5.00,0.00,27.8,26.5,00.0,36.2,29.5,16.0,0004.0,0009.92,0023.89,0008.18
2023-05-02 17:41:00,,0830.1,5.00,0.00,27.8,26.5,00.0,36.2,29.5,15.9,0004.2,0009.98,0024.25,0008.20
2023-05-02 17:42:00,,0830.0,5.01,0.00,27.8,26.5,00.0,36.2,29.5,15.9,0004.4,0010.00,0023.22,0008.23
2023-05-02 17:43:00,,0830.1,5.01,0.00,27.8,26.5,00.0,36.2,29.5,15.9,0004.2,0009.99,0023.03,0008.25
2023-05-02 17:44:00,,0830.1,5.01,0.00,27.9,26.5,00.0,36.2,29.5,16.0,0004.4,0010.00,0022.57,0008.27
2023-05-02 17:45:00,,0830.0,4.99,0.00,27.9,26.5,00.0,36.2,29.5,16.1,0004.4,0010.02,0021.69,0008.31
2023-05-02 17:46:00,,0830.0,4.99,0.00,27.9,26.6,00.0,36.2,29.5,16.0,0004.3,0010.05,0021.68,0008.35
2023-05-02 17:47:00,,0830.1,5.00,0.00,27.9,26.6,00.0,36.2,29.5,16.1,0004.2,0010.10,0021.38,0008.39
2023-05-02 17:48:00,,0830.0,5.00,0.00,27.9,26.6,00.0,36.2,29.6,16.0,0004.2,0010.14,0022.14,0008.41
2023-05-02 17:49:00,,0830.0,5.00,0.00,27.9,26.6,00.0,36.2,29.6,16.0,0004.0,0010.17,0022.82,0008.44
2023-05-02 17:50:00,,0830.0,5.00,0.00,27.9,26.6,00.0,36.3,29.6,15.8,0003.7,0010.15,0023.98,0008.46
2023-05-02 17:51:00,,0830.0,5.00,0.00,27.9,26.6,00.0,36.3,29.6,15.9,0003.9,0010.11,0024.88,0008.50
2023-05-02 17:52:00,,0830.0,5.00,0.00,27.9,26.6,00.0,36.3,29.6,16.2,0004.0,0010.06,0024.61,0008.51
2023-05-02 17:53:00,,0830.0,5.00,0.00,27.9,26.6,00.0,36.3,29.6,16.3,0004.2,0010.09,0024.54,0008.55
2023-05-02 17:54:00,,0830.0,5.00,0.00,27.9,26.6,00.0,36.3,29.6,16.0,0004.3,0010.16,0024.99,0008.59
2023-05-02 17:55:00,,0830.0,5.01,0.00,28.0,26.6,00.0,36.3,29.6,16.2,0004.3,0010.20,0024.92,0008.65
2023-05-02 17:56:00,,0830.0,5.00,0.00,28.0,26.7,00.0,36.3,29.6,15.8,0004.5,0010.30,0025.43,0008.70
2023-05-02 17:57:00,,0830.0,5.00,0.00,28.0,26.7,00.0,36.3,29.6,15.9,0004.7,0010.43,0026.04,0008.74
2023-05-02 17:58:00,,0830.0,4.98,0.00,28.0,26.8,00.0,36.3,29.6,15.9,0004.7,0010.50,0027.04,0008.81
2023-05-02 17:59:00,,0830.0,5.01,0.00,28.1,26.8,00.0,36.3,29.7,16.0,0004.5,0010.56,0026.38,0008.88
